Hammond, LA

3:11 PM CDT on September 19, 2017 (GMT -0500)
Hammond Municipal

Weather History for KHDC - December, 2012

Change the Weather History Date:

Friday, December 21, 2012

  Actual Average (KMSY) Record (KMSY)
Temperature  
Mean Temperature 45 °F -  
Max Temperature 57 °F 65 °F 80 °F (1967)
Min Temperature 33 °F 47 °F 27 °F (1973)
Degree Days  
Heating Degree Days 20    
Moisture  
Dew Point 28 °F    
Average Humidity 59    
Maximum Humidity 93    
Minimum Humidity 27    
Precipitation  
Precipitation 0.00 in - - ()
Sea Level Pressure  
Sea Level Pressure 30.38 in    
Wind  
Wind Speed 6 mph (NW)    
Max Wind Speed 14 mph    
Max Gust Speed 25 mph    
Visibility 10 miles    
Events      
Averages and records for this station are not official NWS values.
T = Trace of Precipitation, MM = Missing Value Source: NWS Daily Summary

Daily Weather History Graph

Daily Weather History Graph

Search for Another Location

Airport or City:

Trip Planner

Search our weather history database for the weather conditions in past years. The results will help you decide how hot, cold, wet, or windy it might be!

Date:

Astronomy

Dec. 21, 2012 Rise Set
Actual Time 6:54 AM CST 5:05 PM CST
Civil Twilight 6:28 AM CST 5:31 PM CST
Nautical Twilight 5:58 AM CST 6:01 PM CST
Astronomical Twilight 5:28 AM CST 6:31 PM CST
Moon 12:37 PM CST (12/21) 12:58 AM CST (12/21)
Length of Visible Light 11h 03m
Length of Day
10h 10m
Waxing Gibbous, 65% of the Moon is Illuminated
Dec 21
Waxing Gibbous
Dec 28
Full
Jan 4
Last Quarter
Jan 11
New
Jan 18
First Quarter

Hourly Weather History & Observations

Time (CST) Temp. Windchill Dew Point Humidity Pressure Visibility Wind Dir Wind Speed Gust Speed Precip Events Conditions
12:15 AM 41.0 °F 36.4 °F 30.2 °F 65% 30.32 in 10.0 mi NW 6.9 mph - N/A   Clear
12:35 AM 39.2 °F 37.0 °F 28.4 °F 65% 30.32 in 10.0 mi WNW 3.5 mph - N/A   Clear
12:55 AM 39.2 °F - 30.2 °F 70% 30.32 in 10.0 mi Calm Calm - N/A   Clear
1:15 AM 39.2 °F 37.0 °F 30.2 °F 70% 30.32 in 10.0 mi WNW 3.5 mph - N/A   Clear
1:35 AM 39.2 °F 35.0 °F 30.2 °F 70% 30.33 in 10.0 mi WNW 5.8 mph - N/A   Clear
1:55 AM 37.4 °F 33.8 °F 30.2 °F 75% 30.34 in 10.0 mi NW 4.6 mph - N/A   Clear
2:15 AM 37.4 °F 33.8 °F 28.4 °F 70% 30.34 in 10.0 mi WNW 4.6 mph - N/A   Clear
2:35 AM 39.2 °F 34.2 °F 28.4 °F 65% 30.34 in 10.0 mi WNW 6.9 mph - N/A   Clear
2:55 AM 39.2 °F 33.0 °F 26.6 °F 61% 30.34 in 10.0 mi WNW 9.2 mph - N/A   Clear
3:15 AM 39.2 °F 33.0 °F 26.6 °F 61% 30.35 in 10.0 mi NW 9.2 mph - N/A   Clear
3:35 AM 39.2 °F 34.2 °F 26.6 °F 61% 30.35 in 10.0 mi WNW 6.9 mph - N/A   Clear
3:55 AM 37.4 °F 32.1 °F 26.6 °F 65% 30.35 in 10.0 mi WNW 6.9 mph - N/A   Clear
4:15 AM 37.4 °F 32.1 °F 26.6 °F 65% 30.35 in 10.0 mi WNW 6.9 mph - N/A   Clear
4:35 AM 37.4 °F 32.1 °F 26.6 °F 65% 30.36 in 10.0 mi WNW 6.9 mph - N/A   Clear
4:55 AM 37.4 °F 32.8 °F 26.6 °F 65% 30.37 in 10.0 mi WNW 5.8 mph - N/A   Clear
5:15 AM 35.6 °F 32.8 °F 26.6 °F 70% 30.38 in 10.0 mi NW 3.5 mph - N/A   Clear
5:35 AM 35.6 °F 31.7 °F 26.6 °F 70% 30.38 in 10.0 mi NW 4.6 mph - N/A   Clear
5:55 AM 35.6 °F 31.7 °F 26.6 °F 70% 30.38 in 10.0 mi NW 4.6 mph - N/A   Clear
6:15 AM 33.8 °F 29.6 °F 26.6 °F 75% 30.39 in 10.0 mi NW 4.6 mph - N/A   Clear
6:35 AM 33.8 °F 28.6 °F 26.6 °F 75% 30.39 in 10.0 mi NW 5.8 mph - N/A   Clear
6:55 AM 33.8 °F 29.6 °F 26.6 °F 75% 30.40 in 10.0 mi NW 4.6 mph - N/A   Clear
7:15 AM 33.8 °F 29.6 °F 26.6 °F 75% 30.41 in 10.0 mi NW 4.6 mph - N/A   Clear
7:35 AM 35.6 °F 30.7 °F 26.6 °F 70% 30.42 in 10.0 mi NW 5.8 mph - N/A   Clear
7:55 AM 37.4 °F 32.8 °F 26.6 °F 65% 30.42 in 10.0 mi NW 5.8 mph - N/A   Clear
8:15 AM 39.2 °F 33.6 °F 26.6 °F 61% 30.44 in 10.0 mi NW 8.1 mph - N/A   Clear
8:35 AM 41.0 °F 35.8 °F 24.8 °F 53% 30.44 in 10.0 mi NW 8.1 mph - N/A   Clear
8:55 AM 44.6 °F 41.4 °F 24.8 °F 46% 30.45 in 10.0 mi NW 5.8 mph - N/A   Clear
9:15 AM 44.6 °F 39.7 °F 23.0 °F 43% 30.46 in 10.0 mi NW 9.2 mph 13.8 mph N/A   Clear
9:35 AM 46.4 °F 41.9 °F 23.0 °F 40% 30.46 in 10.0 mi NNW 9.2 mph 17.3 mph N/A   Clear
9:55 AM 46.4 °F 41.5 °F 23.0 °F 40% 30.46 in 10.0 mi NW 10.4 mph - N/A   Clear
10:15 AM 48.2 °F - 23.0 °F 37% 30.46 in 10.0 mi NW 9.2 mph - N/A   Clear
10:35 AM 50.0 °F - 23.0 °F 35% 30.45 in 10.0 mi WNW 12.7 mph 19.6 mph N/A   Clear
10:55 AM 50.0 °F - 23.0 °F 35% 30.45 in 10.0 mi NW 12.7 mph - N/A   Clear
11:15 AM 51.8 °F - 23.0 °F 33% 30.44 in 10.0 mi NNW 11.5 mph 20.7 mph N/A   Clear
11:35 AM 51.8 °F - 23.0 °F 33% 30.42 in 10.0 mi NNW 12.7 mph 17.3 mph N/A   Clear
11:55 AM 53.6 °F - 24.8 °F 33% 30.41 in 10.0 mi NW 13.8 mph 17.3 mph N/A   Clear
12:15 PM 53.6 °F - 23.0 °F 30% 30.39 in 10.0 mi NNW 11.5 mph 18.4 mph N/A   Clear
12:35 PM 55.4 °F - 23.0 °F 29% 30.38 in 10.0 mi NW 8.1 mph - N/A   Clear
12:55 PM 55.4 °F - 23.0 °F 29% 30.37 in 10.0 mi NW 12.7 mph 25.3 mph N/A   Clear
1:15 PM 57.2 °F - 23.0 °F 27% 30.36 in 10.0 mi NNW 11.5 mph 20.7 mph N/A   Clear
1:35 PM 57.2 °F - 23.0 °F 27% 30.36 in 10.0 mi WNW 13.8 mph 18.4 mph N/A   Clear
1:55 PM 57.2 °F - 24.8 °F 29% 30.35 in 10.0 mi NNW 10.4 mph 19.6 mph N/A   Clear
2:15 PM 57.2 °F - 24.8 °F 29% 30.36 in 10.0 mi WNW 12.7 mph - N/A   Clear
2:35 PM 57.2 °F - 26.6 °F 31% 30.35 in 10.0 mi NW 8.1 mph 16.1 mph N/A   Clear
2:55 PM 57.2 °F - 26.6 °F 31% 30.34 in 10.0 mi WNW 11.5 mph 16.1 mph N/A   Clear
3:15 PM 57.2 °F - 26.6 °F 31% 30.34 in 10.0 mi WNW 11.5 mph - N/A   Clear
3:35 PM 57.2 °F - 26.6 °F 31% 30.34 in 10.0 mi NW 9.2 mph - N/A   Clear
3:55 PM 57.2 °F - 26.6 °F 31% 30.35 in 10.0 mi NNW 6.9 mph - N/A   Clear
4:15 PM 57.2 °F - 26.6 °F 31% 30.35 in 10.0 mi NNW 9.2 mph - N/A   Clear
4:35 PM 55.4 °F - 26.6 °F 33% 30.35 in 10.0 mi NW 6.9 mph - N/A   Clear
4:55 PM 53.6 °F - 26.6 °F 35% 30.36 in 10.0 mi NNW 5.8 mph - N/A   Clear
5:15 PM 48.2 °F - 30.2 °F 50% 30.36 in 10.0 mi NW 3.5 mph - N/A   Clear
5:35 PM 48.2 °F - 30.2 °F 50% 30.36 in 10.0 mi Calm Calm - N/A   Clear
5:55 PM 46.4 °F - 32.0 °F 57% 30.36 in 10.0 mi Calm Calm - N/A   Clear
6:15 PM 42.8 °F - 35.6 °F 76% 30.38 in 10.0 mi Calm Calm - N/A   Clear
6:35 PM 42.8 °F - 33.8 °F 70% 30.38 in 10.0 mi Calm Calm - N/A   Clear
6:55 PM 41.0 °F - 35.6 °F 81% 30.38 in 10.0 mi Calm Calm - N/A   Clear
7:15 PM 41.0 °F - 35.6 °F 81% 30.39 in 10.0 mi Calm Calm - N/A   Clear
7:35 PM 39.2 °F - 33.8 °F 81% 30.39 in 10.0 mi Calm Calm - N/A   Clear
7:55 PM 39.2 °F - 33.8 °F 81% 30.40 in 10.0 mi Calm Calm - N/A   Clear
8:15 PM 37.4 °F - 33.8 °F 87% 30.40 in 10.0 mi Calm Calm - N/A   Clear
8:35 PM 39.2 °F - 35.6 °F 87% 30.41 in 10.0 mi Calm Calm - N/A   Clear
8:55 PM 39.2 °F - 33.8 °F 81% 30.41 in 10.0 mi Calm Calm - N/A   Clear
9:15 PM 37.4 °F - 33.8 °F 87% 30.41 in 10.0 mi Calm Calm - N/A   Clear
9:35 PM 37.4 °F - 33.8 °F 87% 30.41 in 10.0 mi Calm Calm - N/A   Clear
9:55 PM 37.4 °F - 35.6 °F 93% 30.40 in 10.0 mi Calm Calm - N/A   Clear
10:15 PM 35.6 °F - 32.0 °F 87% 30.40 in 10.0 mi Calm Calm - N/A   Clear
10:35 PM 35.6 °F - 32.0 °F 87% 30.40 in 10.0 mi Calm Calm - N/A   Clear
10:55 PM 35.6 °F - 33.8 °F 93% 30.40 in 10.0 mi Calm Calm - N/A   Clear
11:15 PM 35.6 °F - 33.8 °F 93% 30.39 in 10.0 mi Calm Calm - N/A   Clear
11:35 PM 33.8 °F - 32.0 °F 93% 30.38 in 10.0 mi Calm Calm - N/A   Clear
11:55 PM 33.8 °F - 32.0 °F 93% 30.39 in 10.0 mi Calm Calm - N/A   Clear